[[{"header":{"parameterUnit":"m.s-1","parameterCategory":1,"la1":30.2991,"la2":30.254,"lo1":-89.0895,"lo2":-89.0444,"dy":0.0017,"dx":0.0017,"nx":28,"ny":28,"refTime":"2024-06-10T09:00:00:Z","depth":0,"parameterNumber":2,"parameterNumberName":"U-component_of_WINDS"},"data":[0,0,0,0,0,0,0,0,0,0,0,0,0,0,0,0,0,0,0,0,0,0,0,0,0,0,0,0,0,0,0,0,0,0,0,0,0,0,0,0,0,0,0,0,0,0,0,0,0,0,0,0,0,0,0,0,0,0,2.1067,2.1068,0,2.1241,2.1243,2.1245,2.1206,2.1202,2.1199,2.1196,2.1377,2.1384,2.1392,0,0,0,0,0,0,0,0,0,0,0,0,0,2.0701,2.0708,2.1066,2.1069,2.1071,2.1241,2.1243,2.1246,2.1206,2.1202,2.1198,2.1194,2.1374,2.1383,2.1393,0,0,0,0,0,0,0,0,0,0,0,0,0,2.0866,2.071,2.1066,2.1071,2.1074,2.1241,2.1243,2.1246,2.1207,2.1202,2.1197,2.1192,2.1371,2.1382,2.1394,2.1567,0,0,2.143,2.1435,0,0,0,0,0,0,0,0,2.0857,2.0879,2.1068,2.1071,2.1074,2.1196,2.1181,2.1354,2.1208,2.1156,2.1196,2.119,2.1321,2.1336,2.138,2.1575,2.1583,2.1431,2.1439,2.1444,2.1447,0,0,0,0,0,0,0,2.0845,2.0872,2.1136,2.1071,2.1075,2.1066,2.1084,2.1213,2.1264,2.1161,2.1158,2.1179,2.1321,2.1369,2.1384,2.1586,2.1431,2.1442,2.1449,2.1454,2.1934,2.1939,0,0,0,0,0,0,2.0831,2.0862,2.113,2.1141,2.0951,2.1077,2.1097,2.1162,2.1263,2.1273,2.1183,2.1177,2.1351,2.137,2.139,2.1602,2.1444,2.1455,2.1462,2.1929,2.1935,2.1941,0,0,0,0,0,0,2.0823,2.0855,2.1123,2.1001,2.1034,2.1088,2.1162,2.1168,2.1216,2.128,2.1289,2.1222,2.1348,2.1374,2.1524,2.1607,2.146,2.1471,2.1922,2.1931,2.1938,2.2024,0,0,0,0,0,0,2.0813,2.0853,2.0918,2.1003,2.1041,2.1253,2.1167,2.1175,2.1236,2.1229,2.1319,2.1329,2.1346,2.1506,2.1536,2.1621,2.148,2.1915,2.1926,2.1936,2.2014,2.2034,2.2051,0,0,0,0,0,2.08,2.0935,2.0922,2.0954,2.1124,2.1258,2.128,2.1296,2.1243,2.131,2.1352,2.1326,2.1593,2.1522,2.1555,2.1645,2.191,2.1923,2.1935,2.2005,2.203,2.2051,0,0,0,0,0,0,2.0859,2.0946,2.0932,2.1099,2.1171,2.1251,2.1336,2.1321,2.1411,2.14,2.1417,2.1438,2.1591,2.1632,2.1552,2.1818,2.1744,2.1764,2.1786,2.181,2.1829,2.1816,2.149,0,0,0,0,0,2.0891,2.0992,2.1063,2.1203,2.124,2.1282,2.134,2.1347,2.1423,2.1453,2.1506,2.1581,2.1682,2.1748,2.1844,2.2019,2.2039,2.2097,2.2116,2.2131,2.2149,2.2246,2.2274,2.1983,2.1983,2.1983,0,0,2.0959,2.1019,2.1082,2.1216,2.1273,2.1378,2.1308,2.1421,2.15,2.1471,2.1616,2.1657,2.1742,2.1906,2.1981,2.1946,2.2233,2.2147,2.2159,2.2168,2.2262,2.229,2.2314,2.1992,2.199,2.1989,0,0,2.1137,2.1192,2.1316,2.1374,2.1461,2.1489,2.1518,2.1601,2.1627,2.1773,2.1754,2.1848,2.202,2.2083,2.2137,2.234,2.2321,2.2371,2.247,2.2565,2.2588,2.2609,2.2683,2.2709,2.2388,2.2388,2.2388,0,2.1211,2.1368,2.1381,2.1498,2.1558,2.1536,2.1663,2.1719,2.1833,2.1876,2.1834,2.2052,2.2107,2.2287,2.2336,2.238,2.2416,2.2361,2.2583,2.2604,2.2623,2.2695,2.2723,2.2393,2.2393,2.2392,2.2392,0,2.1455,2.1565,2.1654,2.1766,2.1836,2.1957,2.1989,2.2059,2.206,2.2092,2.2242,2.2308,2.2418,2.246,2.2461,2.2641,2.2616,2.2579,2.2505,2.2657,2.2724,2.2751,2.2402,2.24,2.2398,2.2396,0,0,2.1675,2.1793,2.1826,2.1878,2.1973,2.2058,2.2178,2.2286,2.2347,2.2426,2.2529,2.2676,2.2643,2.2704,2.2712,2.2796,2.2955,2.2748,2.2751,2.2786,2.3159,2.3188,2.3219,2.2942,2.2948,2.2952,2.3153,0,2.1863,2.2075,2.2092,2.2283,2.2386,2.2367,2.2472,2.2543,2.2576,2.2668,2.2705,2.281,2.2757,2.2794,2.2876,2.2918,2.3031,2.2904,2.304,2.3044,2.3021,2.3254,2.3285,2.3472,2.3179,2.3183,2.3187,0,2.2111,2.2199,2.2401,2.2484,2.2527,2.2622,2.2723,2.2811,2.2891,2.2909,2.2979,2.2976,2.3101,2.3021,2.3194,2.3108,2.3164,2.3194,2.3201,2.3216,2.3126,2.3277,2.3531,2.356,2.3228,2.3225,2.3222,0,2.2254,2.2423,2.2566,2.261,2.271,2.2777,2.2821,2.2896,2.2961,2.3049,2.3092,2.3193,2.3249,2.3329,2.3354,2.3292,2.3527,2.3449,2.3548,2.3547,2.3599,2.3596,2.3868,2.3632,2.3632,2.3631,2.3631,0,2.2463,2.2588,2.2632,2.272,2.286,2.2878,2.3017,2.3057,2.3125,2.3222,2.3211,2.3302,2.3329,2.3425,2.3445,2.3587,2.3612,2.3632,2.3636,2.3634,2.3632,2.3672,2.3661,2.3639,2.3637,2.3636,2.3635,0,2.2647,2.2681,2.2836,2.2918,2.2942,2.3042,2.3112,2.3198,2.323,2.3353,2.3383,2.3433,2.3546,2.3578,2.3714,2.3727,2.3895,2.3886,2.3868,2.3869,2.3967,2.3958,2.4275,2.4319,2.4053,2.4056,2.4058,0,2.2779,2.2875,2.2967,2.3032,2.3079,2.3183,2.3249,2.327,2.334,2.3439,2.3514,2.3625,2.3716,2.3897,2.3946,2.405,2.4045,2.415,2.4061,2.4057,2.4049,2.4044,2.4055,2.4167,2.417,2.4172,2.4174,0,2.301,2.3023,2.3118,2.3221,2.33,2.3381,2.346,2.3513,2.3546,2.3625,2.374,2.3811,2.395,2.4061,2.4167,2.4214,2.4201,2.4201,2.423,2.423,2.4216,2.4227,2.3916,2.4194,2.4192,2.419,2.4189,2.4189,2.3173,2.3259,2.3338,2.3445,2.3507,2.3581,2.3666,2.3709,2.3806,2.3921,2.3928,2.4054,2.4133,2.4274,2.4326,2.4426,2.4395,2.4436,2.4447,2.4457,2.4466,2.4199,2.4445,2.4444,2.4444,2.4443,2.4443,0,2.3406,2.3456,2.3555,2.3665,2.375,2.373,2.3816,2.3889,2.4,2.4075,2.4165,2.4299,2.4407,2.4465,2.4574,2.4642,2.4639,2.467,2.4666,2.4678,2.4487,2.4452,2.4671,2.4671,2.4671,2.4671,2.4671,2.4671,2.3537,2.3681,2.3703,2.3878,2.3928,2.4051,2.4103,2.4171,2.4232,2.4382,2.4472,2.4509,2.4579,2.4692,2.4791,2.4805,2.4847,2.4882,2.4893,2.4714,2.4691,2.4668,2.4636,2.489,2.4891,2.5076,2.5077,2.5079]},{"header":{"parameterUnit":"m.s-1","parameterCategory":1,"la1":30.2991,"la2":30.254,"lo1":-89.0895,"lo2":-89.0444,"dy":0.0017,"dx":0.0017,"nx":28,"ny":28,"refTime":"2024-06-10T09:00:00:Z","depth":0,"parameterNumber":3,"parameterNumberName":"V-component_of_WINDS"},"data":[0,0,0,0,0,0,0,0,0,0,0,0,0,0,0,0,0,0,0,0,0,0,0,0,0,0,0,0,0,0,0,0,0,0,0,0,0,0,0,0,0,0,0,0,0,0,0,0,0,0,0,0,0,0,0,0,0,0,0.2486,0.2487,0,0.2619,0.2621,0.2623,0.2601,0.2599,0.2597,0.2594,0.2738,0.2744,0.2749,0,0,0,0,0,0,0,0,0,0,0,0,0,0.2219,0.2224,0.2486,0.2487,0.2489,0.2619,0.2621,0.2623,0.2602,0.2599,0.2596,0.2593,0.2736,0.2743,0.275,0,0,0,0,0,0,0,0,0,0,0,0,0,0.2342,0.2226,0.2485,0.2494,0.2496,0.2619,0.2621,0.2623,0.2602,0.2599,0.2595,0.2592,0.2733,0.2742,0.2751,0.2876,0,0,0.2778,0.2782,0,0,0,0,0,0,0,0,0.2335,0.2352,0.2491,0.2494,0.2496,0.259,0.258,0.2708,0.2603,0.2562,0.2594,0.259,0.2692,0.2704,0.2737,0.2882,0.2889,0.2779,0.2785,0.2788,0.2791,0,0,0,0,0,0,0,0.2327,0.2346,0.2539,0.2493,0.2496,0.2494,0.2507,0.2604,0.2645,0.2565,0.2564,0.258,0.2693,0.2728,0.274,0.2891,0.2779,0.2787,0.2792,0.2796,0.3147,0.315,0,0,0,0,0,0,0.2315,0.2339,0.2535,0.2543,0.2405,0.2501,0.2516,0.2564,0.2644,0.2653,0.2583,0.2579,0.2715,0.273,0.2745,0.2897,0.2788,0.2797,0.2802,0.3143,0.3148,0.3152,0,0,0,0,0,0,0.2309,0.2333,0.2529,0.2441,0.2466,0.2509,0.2563,0.2568,0.2603,0.2657,0.2665,0.2611,0.2713,0.2733,0.2843,0.2901,0.2801,0.2809,0.3138,0.3144,0.315,0.3201,0,0,0,0,0,0,0.2302,0.2331,0.2377,0.2442,0.247,0.2623,0.2566,0.2573,0.2618,0.2614,0.2686,0.2694,0.2711,0.283,0.2852,0.2912,0.2816,0.3133,0.3141,0.3148,0.3194,0.3208,0.3219,0,0,0,0,0,0.2292,0.2387,0.2379,0.2403,0.2528,0.2626,0.2643,0.2659,0.2623,0.2671,0.2705,0.2692,0.2892,0.2841,0.2866,0.293,0.3129,0.3139,0.3147,0.3188,0.3205,0.3219,0,0,0,0,0,0,0.2329,0.2395,0.2388,0.2505,0.256,0.2622,0.2683,0.2676,0.2743,0.2737,0.2756,0.2772,0.2885,0.2918,0.2861,0.3055,0.3006,0.302,0.3029,0.3045,0.3057,0.3047,0.2823,0,0,0,0,0,0.2351,0.2423,0.2478,0.2577,0.2604,0.2639,0.2682,0.269,0.2748,0.2772,0.2814,0.2873,0.2949,0.2999,0.3072,0.3199,0.3215,0.3255,0.3268,0.3278,0.329,0.3361,0.3379,0.3181,0.3181,0.3181,0,0,0.2397,0.2442,0.2486,0.2585,0.2628,0.2704,0.2659,0.2741,0.2798,0.2785,0.2891,0.2925,0.2992,0.3112,0.3167,0.3144,0.3348,0.3289,0.3297,0.3304,0.3372,0.339,0.3407,0.3187,0.3186,0.3185,0,0,0.2519,0.256,0.2647,0.2691,0.2756,0.2779,0.28,0.2864,0.2885,0.2992,0.2984,0.3054,0.3184,0.3232,0.3274,0.3416,0.3407,0.344,0.3505,0.3574,0.359,0.3604,0.3655,0.3673,0.3451,0.3452,0.3452,0,0.2568,0.268,0.2693,0.2776,0.2821,0.2811,0.29,0.2943,0.303,0.3062,0.3035,0.3198,0.3243,0.3374,0.3409,0.3443,0.3469,0.3431,0.3586,0.36,0.3613,0.3663,0.3682,0.3455,0.3455,0.3454,0.3454,0,0.2738,0.2816,0.2879,0.2961,0.3013,0.3099,0.3127,0.3179,0.3182,0.3209,0.3319,0.3372,0.3456,0.3488,0.3493,0.362,0.3604,0.3581,0.3532,0.3636,0.3682,0.3701,0.346,0.3459,0.3458,0.3457,0,0,0.2887,0.2974,0.2997,0.3035,0.3107,0.3169,0.3256,0.3335,0.3379,0.3441,0.3515,0.3626,0.3605,0.3653,0.3664,0.3724,0.3834,0.3694,0.3696,0.3718,0.3979,0.3995,0.4016,0.3828,0.3832,0.3835,0.3973,0,0.3016,0.3166,0.3181,0.3316,0.339,0.3382,0.3458,0.3511,0.3539,0.3607,0.3638,0.3717,0.3683,0.3712,0.3772,0.3808,0.3886,0.3798,0.3899,0.3902,0.3882,0.4041,0.4058,0.4186,0.3991,0.3994,0.3997,0,0.3186,0.3249,0.3392,0.3454,0.3485,0.3553,0.3628,0.3693,0.3754,0.377,0.3824,0.3827,0.3918,0.3866,0.3994,0.3933,0.3976,0.4,0.4006,0.4016,0.3956,0.4055,0.4227,0.4247,0.4025,0.4023,0.4021,0,0.328,0.3402,0.3503,0.3535,0.361,0.3658,0.3692,0.375,0.3798,0.3865,0.3896,0.3973,0.4016,0.4077,0.4101,0.406,0.4228,0.4177,0.4246,0.4245,0.4281,0.4278,0.4462,0.4308,0.4308,0.4308,0.4307,0,0.3423,0.351,0.3546,0.3608,0.3707,0.3724,0.3822,0.3855,0.3907,0.3977,0.3976,0.4042,0.407,0.4142,0.4162,0.4266,0.4285,0.4302,0.4306,0.4302,0.43,0.433,0.4322,0.4313,0.4312,0.4311,0.431,0,0.3544,0.3572,0.3681,0.3743,0.3761,0.3831,0.3885,0.3947,0.3973,0.4062,0.4085,0.4128,0.4212,0.4242,0.4345,0.4359,0.4479,0.4476,0.4457,0.4458,0.4525,0.4518,0.4735,0.4765,0.4591,0.4592,0.4594,0,0.3633,0.37,0.3769,0.3815,0.385,0.3924,0.3972,0.3993,0.4044,0.4119,0.4172,0.4256,0.4323,0.4458,0.45,0.4579,0.4579,0.4649,0.4591,0.4585,0.458,0.4576,0.4583,0.466,0.4662,0.4663,0.4664,0,0.3789,0.3799,0.3867,0.394,0.3997,0.4056,0.4114,0.4153,0.4183,0.424,0.4325,0.4377,0.4482,0.4565,0.4646,0.4684,0.4681,0.4682,0.4703,0.4699,0.4686,0.4694,0.4487,0.4677,0.4676,0.4675,0.4674,0.4674,0.3897,0.3956,0.4014,0.409,0.4136,0.419,0.425,0.4284,0.4355,0.444,0.4449,0.4541,0.4603,0.4711,0.4753,0.4826,0.4807,0.4836,0.4844,0.4851,0.4856,0.4673,0.4841,0.4841,0.4841,0.484,0.484,0,0.4053,0.4089,0.4159,0.4239,0.43,0.4289,0.4352,0.4405,0.4485,0.4542,0.4608,0.4707,0.4788,0.4836,0.4918,0.4968,0.4968,0.4989,0.4985,0.4994,0.4868,0.4842,0.4987,0.4987,0.4987,0.4987,0.4987,0.4987,0.4141,0.424,0.4258,0.4381,0.4418,0.4506,0.4544,0.4595,0.464,0.475,0.4816,0.4846,0.4901,0.4987,0.5061,0.5074,0.5104,0.5126,0.5137,0.5018,0.5003,0.4989,0.4965,0.5133,0.5133,0.5258,0.5259,0.526]}]]